Date String (YYYY-MM-DD hh:mm:ss) UTC,Instrument flags,Ambient pressure (hPa),Sample flow (lpm),Bypass flow (lpm),Sample temperature (°C),Ambient temperature (°C),ASC tube jacket temperature (°C),LED temperature (°C),Box temperature (°C),Sample RH (%),Span deviation,Mass concentration (μg/m³),Mass concentration (μg/m³),Mass concentration (μg/m³)
DateTimeUTC,F1_M11,P_M11,Q1_M11,Q2_M11,T1_M11,T2_M11,T3_M11,T4_M11,T5_M11,U1_M11,ZSPAN_M11,X0_M11,X2_M11,X1_M11
2022-06-01 15:00:00,,0833.0,5.01,0.00,25.5,24.4,00.0,34.4,27.4,22.9,0000.0,0003.76,0001.39,0001.21
2022-06-01 15:01:00,,0833.0,4.99,0.00,25.5,24.4,00.0,34.4,27.4,22.9,0000.0,0003.36,0001.35,0001.19
2022-06-01 15:02:00,,0833.0,5.01,0.00,25.5,24.4,00.0,34.4,27.4,22.7,0000.0,0003.16,0001.36,0001.18
2022-06-01 15:03:00,,0833.0,4.99,0.00,25.5,24.4,00.0,34.4,27.4,22.6,0000.0,0003.17,0001.35,0001.16
2022-06-01 15:04:00,,0833.0,5.01,0.00,25.5,24.4,00.0,34.4,27.4,22.5,0000.0,0003.24,0001.38,0001.17
2022-06-01 15:05:00,,0833.0,5.01,0.00,25.4,24.4,00.0,34.4,27.4,22.5,0000.0,0003.37,0001.44,0001.19
2022-06-01 15:06:00,,0833.0,5.00,0.00,25.5,24.4,00.0,34.4,27.4,22.4,0000.0,0003.38,0001.45,0001.20
2022-06-01 15:07:00,,0833.0,5.01,0.00,25.5,24.4,00.0,34.4,27.4,22.5,0000.0,0003.11,0001.47,0001.21
2022-06-01 15:08:00,,0833.0,5.00,0.00,25.5,24.4,00.0,34.4,27.4,22.7,0000.0,0002.10,0001.51,0001.22
2022-06-01 15:09:00,,0833.0,5.00,0.00,25.5,24.4,00.0,34.4,27.4,22.8,0000.0,0003.00,0001.57,0001.23
2022-06-01 15:10:00,,0833.0,5.00,0.00,25.5,24.4,00.0,34.4,27.4,22.5,0000.0,0003.30,0001.59,0001.22
2022-06-01 15:11:00,,0833.1,5.01,0.00,25.5,24.4,00.0,34.4,27.4,22.5,0000.0,0003.34,0001.59,0001.22
2022-06-01 15:12:00,,0833.0,4.98,0.00,25.5,24.5,00.0,34.4,27.4,23.0,0000.0,0003.41,0001.60,0001.21
2022-06-01 15:13:00,,0833.0,5.01,0.00,25.5,24.5,00.0,34.4,27.4,22.6,0000.0,0003.41,0001.59,0001.21
2022-06-01 15:14:00,,0833.1,5.00,0.00,25.5,24.4,00.0,34.4,27.4,22.4,0000.0,0003.48,0001.61,0001.21
2022-06-01 15:15:00,,0833.0,5.00,0.00,25.5,24.4,00.0,34.4,27.4,22.3,0000.0,0003.46,0001.60,0001.20
2022-06-01 15:16:00,,0833.0,5.00,0.00,25.5,24.4,00.0,34.4,27.4,22.0,0000.0,0003.34,0001.55,0001.18
2022-06-01 15:17:00,,0833.0,5.00,0.00,25.5,24.4,00.0,34.4,27.4,22.3,0000.0,0003.30,0001.53,0001.16
2022-06-01 15:18:00,,0833.0,4.99,0.00,25.5,24.4,00.0,34.4,27.4,22.2,0000.0,0003.21,0001.50,0001.14
2022-06-01 15:19:00,,0833.0,5.00,0.00,25.5,24.4,00.0,34.4,27.4,22.0,0000.0,0003.22,0001.49,0001.13
2022-06-01 15:20:00,,0833.0,5.00,0.00,25.5,24.4,00.0,34.4,27.4,22.5,0000.0,0002.32,0001.43,0001.12
2022-06-01 15:21:00,,0833.0,5.00,0.00,25.5,24.4,00.0,34.4,27.4,22.3,0000.0,0002.08,0001.42,0001.12
2022-06-01 15:22:00,,0833.0,5.01,0.00,25.5,24.4,00.0,34.4,27.4,22.2,0000.0,0002.10,0001.43,0001.12
2022-06-01 15:23:00,,0833.0,4.99,0.00,25.5,24.4,00.0,34.4,27.4,21.9,0000.0,0002.14,0001.46,0001.13
2022-06-01 15:24:00,,0833.1,5.01,0.00,25.5,24.4,00.0,34.4,27.4,21.6,0000.0,0002.07,0001.45,0001.14
2022-06-01 15:25:00,,0833.0,5.00,0.00,25.4,24.4,00.0,34.4,27.3,21.4,0000.0,0001.94,0001.42,0001.15
2022-06-01 15:26:00,,0833.0,5.00,0.00,25.4,24.3,00.0,34.4,27.3,21.9,0000.0,0001.92,0001.42,0001.16
2022-06-01 15:27:00,,0833.1,5.01,0.00,25.4,24.3,00.0,34.4,27.3,22.3,0000.0,0001.94,0001.44,0001.18
2022-06-01 15:28:00,,0833.0,5.00,0.00,25.4,24.3,00.0,34.4,27.3,22.6,0000.0,0001.92,0001.45,0001.21
2022-06-01 15:29:00,,0833.1,5.01,0.00,25.4,24.3,00.0,34.4,27.3,22.4,0000.0,0001.99,0001.49,0001.23
2022-06-01 15:30:00,,0833.1,5.00,0.00,25.4,24.3,00.0,34.4,27.3,22.7,0000.0,0002.05,0001.52,0001.26
2022-06-01 15:31:00,,0833.1,4.99,0.00,25.4,24.3,00.0,34.4,27.3,22.6,0000.0,0002.12,0001.54,0001.29
2022-06-01 15:32:00,,0833.0,5.01,0.00,25.4,24.3,00.0,34.4,27.3,22.1,0000.0,0002.13,0001.53,0001.30
2022-06-01 15:33:00,,0833.0,4.99,0.00,25.4,24.3,00.0,34.4,27.3,22.2,0000.0,0002.11,0001.52,0001.30
2022-06-01 15:34:00,,0833.0,5.00,0.00,25.4,24.3,00.0,34.4,27.3,22.4,0000.0,0002.06,0001.52,0001.31
2022-06-01 15:35:00,,0833.0,5.01,0.00,25.4,24.3,00.0,34.4,27.3,22.5,0000.0,0002.08,0001.53,0001.31
2022-06-01 15:36:00,,0832.9,5.01,0.00,25.4,24.3,00.0,34.4,27.3,22.8,0000.0,0002.16,0001.57,0001.33
2022-06-01 15:37:00,,0832.9,4.99,0.00,25.3,24.3,00.0,34.3,27.3,23.1,0000.0,0002.21,0001.61,0001.35
2022-06-01 15:38:00,,0832.9,5.01,0.00,25.3,24.3,00.0,34.3,27.3,23.7,0000.0,0002.23,0001.63,0001.39
2022-06-01 15:39:00,,0832.9,4.99,0.00,25.3,24.3,00.0,34.3,27.2,23.8,0000.0,0002.29,0001.67,0001.41
2022-06-01 15:40:00,,0832.8,5.01,0.00,25.3,24.3,00.0,34.3,27.2,23.2,0000.0,0002.30,0001.70,0001.43
2022-06-01 15:41:00,,0832.9,5.00,0.00,25.3,24.2,00.0,34.3,27.2,23.0,0000.0,0002.29,0001.73,0001.47
2022-06-01 15:42:00,,0832.9,4.99,0.00,25.3,24.2,00.0,34.3,27.2,22.8,0000.0,0002.28,0001.76,0001.51
2022-06-01 15:43:00,,0832.8,5.01,0.00,25.3,24.2,00.0,34.3,27.2,23.1,0000.0,0002.35,0001.84,0001.57
2022-06-01 15:44:00,,0832.8,4.99,0.00,25.3,24.2,00.0,34.3,27.2,22.9,0000.0,0002.49,0001.94,0001.64
2022-06-01 15:45:00,,0832.9,5.01,0.00,25.3,24.2,00.0,34.3,27.2,23.0,0000.0,0002.53,0001.99,0001.71
2022-06-01 15:46:00,,0832.8,4.99,0.00,25.3,24.2,00.0,34.3,27.1,23.1,0000.0,0002.58,0002.06,0001.78
2022-06-01 15:47:00,,0832.8,5.00,0.00,25.3,24.2,00.0,34.3,27.1,23.0,0000.0,0002.60,0002.10,0001.84
2022-06-01 15:48:00,,0832.8,5.00,0.00,25.3,24.2,00.0,34.3,27.1,23.3,0000.0,0002.62,0002.14,0001.90
2022-06-01 15:49:00,,0832.8,4.99,0.00,25.3,24.2,00.0,34.3,27.1,23.3,0000.0,0002.69,0002.19,0001.95
2022-06-01 15:50:00,,0832.7,5.00,0.00,25.2,24.1,00.0,34.3,27.1,23.3,0000.0,0002.84,0002.24,0002.00
2022-06-01 15:51:00,,0832.7,4.99,0.00,25.2,24.2,00.0,34.2,27.1,23.6,0000.0,0003.86,0002.31,0002.04
2022-06-01 15:52:00,,0832.8,5.01,0.00,25.2,24.1,00.0,34.2,27.1,24.3,0000.0,0003.93,0002.34,0002.07
2022-06-01 15:53:00,,0832.7,4.99,0.00,25.2,24.1,00.0,34.2,27.1,24.1,0000.0,0003.93,0002.36,0002.08
2022-06-01 15:54:00,,0832.7,5.02,0.00,25.2,24.1,00.0,34.2,27.1,23.9,0000.0,0003.93,0002.37,0002.08
2022-06-01 15:55:00,,0832.7,4.99,0.00,25.2,24.1,00.0,34.2,27.1,23.5,0000.0,0003.84,0002.33,0002.07
2022-06-01 15:56:00,,0832.7,5.01,0.00,25.2,24.1,00.0,34.2,27.1,22.9,0000.0,0003.78,0002.30,0002.07
2022-06-01 15:57:00,,0832.7,5.00,0.00,25.2,24.1,00.0,34.2,27.1,22.7,0000.0,0003.76,0002.29,0002.07
2022-06-01 15:58:00,,0832.7,4.99,0.00,25.2,24.1,00.0,34.2,27.0,23.0,0000.0,0003.94,0002.29,0002.04
2022-06-01 15:59:00,,0832.7,5.01,0.00,25.2,24.1,00.0,34.2,27.0,23.4,0000.0,0005.22,0002.28,0002.02
